This is the latest recevied weather packets stored in our database for station/object IK2ILW-4. If no packets are shown the sender has not sent any weather packets the latest 10 day(s).
| Time | Temp. | Humidity | Pressure | Rain* | Wind** | Luminosity | Snow |
|---|---|---|---|---|---|---|---|
| 1777878160 | 11.67° C | 58% | 1018.9 hPa | 0 mm | - | 388 W/m² | - |
| 1777877856 | 11.11° C | 61% | 1018.9 hPa | 0 mm | - | 330 W/m² | - |
| 1777877571 | 10.56° C | 61% | 1018.9 hPa | 0 mm | - | 214 W/m² | - |
| 1777877266 | 10.56° C | 61% | 1018.9 hPa | 0 mm | - | 294 W/m² | - |
| 1777876958 | 10.56° C | 60% | 1019 hPa | 0 mm | - | 299 W/m² | - |
| 1777876657 | 11.11° C | 58% | 1019 hPa | 0 mm | - | 271 W/m² | - |
| 1777876353 | 11.11° C | 59% | 1019 hPa | 0 mm | - | 193 W/m² | - |
| 1777876073 | 11.11° C | 59% | 1018.9 hPa | 0 mm | - | 185 W/m² | - |
| 1777875769 | 10.56° C | 61% | 1018.9 hPa | 0 mm | - | 221 W/m² | - |
| 1777875464 | 10.56° C | 59% | 1018.9 hPa | 0 mm | - | 237 W/m² | - |
| 1777875160 | 10.56° C | 61% | 1019.7 hPa | 0 mm | - | 216 W/m² | - |
| 1777874859 | 10.56° C | 60% | 1019.7 hPa | 0 mm | - | 186 W/m² | - |
| 1777874559 | 10.56° C | 59% | 1019.7 hPa | 0 mm | - | 167 W/m² | - |
| 1777874259 | 10° C | 58% | 1018.5 hPa | 0 mm | - | 148 W/m² | - |
| 1777873959 | 10° C | 58% | 1018.5 hPa | 0 mm | - | 114 W/m² | - |
| 1777873655 | 10° C | 58% | 1018.5 hPa | 0 mm | - | 93 W/m² | - |
| 1777873371 | 10° C | 58% | 1019.3 hPa | 0 mm | - | 88 W/m² | - |
| 1777873066 | 10.56° C | 57% | 1019.3 hPa | 0 mm | - | 81 W/m² | - |
| 1777872763 | 10.56° C | 55% | 1019.3 hPa | 0 mm | - | 84 W/m² | - |
| 1777872459 | 10.56° C | 55% | 1019.3 hPa | 0 mm | - | 93 W/m² | - |
| 1777872155 | 10.56° C | 55% | 1019.3 hPa | 0 mm | - | 93 W/m² | - |
| 1777871851 | 10.56° C | 54% | 1019.3 hPa | 0 mm | - | 88 W/m² | - |
| 1777871571 | 11.11° C | 53% | 1019.2 hPa | 0 mm | - | 84 W/m² | - |
| 1777871266 | 11.11° C | 53% | 1019.2 hPa | 0 mm | - | 79 W/m² | - |
| 1777870961 | 10.56° C | 56% | 1019.2 hPa | 0 mm | - | 70 W/m² | - |
* Rain since midnight (hover to see other rain measurements)
** Current wind speed in m/s (hover to see current wind gust speed)